TimeMST,TemperatureF,Dew PointF,Humidity,Sea Level PressureIn,VisibilityMPH,Wind Direction,Wind SpeedMPH,Gust SpeedMPH,PrecipitationIn,Events,Conditions,WindDirDegrees,DateUTC
12:05 AM,27.0,25.0,92,29.59,2.5,NW,10.4,-,0.00,Snow,Light Snow,310,2014-02-28 07:05:00
12:18 AM,25.0,21.9,88,29.60,1.8,NW,15.0,-,0.00,Snow,Light Snow,310,2014-02-28 07:18:00
12:50 AM,21.2,19.4,93,29.62,1.5,WNW,12.7,21.9,0.01,Snow,Light Snow,300,2014-02-28 07:50:00
12:53 AM,21.9,19.0,89,29.74,1.8,WNW,12.7,21.9,0.01,Snow,Light Snow,300,2014-02-28 07:53:00
1:44 AM,19.9,16.0,85,29.65,0.8,WNW,13.8,20.7,0.01,Snow,Light Snow,290,2014-02-28 08:44:00
1:50 AM,19.4,15.8,86,29.66,1.0,WNW,11.5,20.7,0.01,Snow,Light Snow,290,2014-02-28 08:50:00
1:53 AM,19.0,16.0,88,29.78,1.0,WNW,6.9,18.4,0.01,Snow,Light Snow,300,2014-02-28 08:53:00
2:04 AM,19.0,14.0,81,29.66,2.0,NW,16.1,24.2,0.00,Snow,Light Snow,310,2014-02-28 09:04:00
2:53 AM,17.1,10.9,77,29.80,1.8,North,13.8,-,0.00,Snow,Light Snow,360,2014-02-28 09:53:00
3:06 AM,17.1,10.9,77,29.69,2.0,NNW,12.7,-,0.00,Snow,Light Snow,340,2014-02-28 10:06:00
3:16 AM,17.1,10.9,77,29.69,2.0,North,10.4,-,0.00,Snow,Light Snow,350,2014-02-28 10:16:00
3:23 AM,17.1,10.9,77,29.69,1.5,North,10.4,-,0.00,Snow,Light Snow,10,2014-02-28 10:23:00
3:37 AM,16.0,10.0,77,29.70,1.8,NW,13.8,-,0.00,Snow,Light Snow,320,2014-02-28 10:37:00
3:53 AM,15.1,10.9,84,29.83,1.2,Variable,4.6,-,0.00,Snow,Light Snow,0,2014-02-28 10:53:00
4:01 AM,15.1,10.0,80,29.71,1.2,WNW,8.1,-,0.00,Snow,Light Snow,290,2014-02-28 11:01:00
4:06 AM,14.0,10.0,84,29.71,1.8,WNW,8.1,-,0.00,Snow,Light Snow,300,2014-02-28 11:06:00
4:35 AM,14.0,9.0,80,29.72,2.5,Variable,5.8,-,0.01,Snow,Light Snow,0,2014-02-28 11:35:00
4:42 AM,12.9,9.0,84,29.73,3.0,WNW,6.9,-,0.01,Snow,Light Snow,300,2014-02-28 11:42:00
4:53 AM,12.9,9.0,84,29.86,2.5,NNW,4.6,-,0.01,Snow,Light Snow,330,2014-02-28 11:53:00
5:02 AM,12.9,9.0,84,29.73,1.8,NW,6.9,-,0.00,Snow,Light Snow,320,2014-02-28 12:02:00
5:40 AM,12.0,8.1,84,29.74,1.5,NW,5.8,-,0.01,Snow,Light Snow,310,2014-02-28 12:40:00
5:53 AM,12.0,7.0,80,29.89,1.8,West,6.9,-,0.01,Snow,Light Snow,280,2014-02-28 12:53:00
6:02 AM,10.9,7.0,84,29.74,2.5,West,8.1,-,0.00,Snow,Light Snow,280,2014-02-28 13:02:00
6:32 AM,12.0,6.1,77,29.75,4.0,WNW,4.6,-,0.00,Snow,Light Snow,300,2014-02-28 13:32:00
6:53 AM,10.9,6.1,81,29.90,5.0,NNW,4.6,-,0.00,Snow,Light Snow,340,2014-02-28 13:53:00
7:53 AM,10.9,5.0,77,29.91,2.5,NNW,5.8,-,0.00,Snow,Light Snow,340,2014-02-28 14:53:00
8:01 AM,10.9,5.0,77,29.74,4.0,North,4.6,-,0.00,Snow,Light Snow,350,2014-02-28 15:01:00
8:18 AM,12.9,7.0,77,29.75,1.8,NE,3.5,-,0.00,Snow,Light Snow,50,2014-02-28 15:18:00
8:33 AM,12.0,3.9,70,29.75,2.5,North,6.9,-,0.00,Snow,Light Snow,350,2014-02-28 15:33:00
8:42 AM,12.0,3.9,70,29.75,4.0,North,5.8,-,0.00,Snow,Light Snow,350,2014-02-28 15:42:00
8:53 AM,12.9,3.9,67,29.89,6.0,NW,5.8,-,0.00,Snow,Light Snow,310,2014-02-28 15:53:00
9:53 AM,12.9,5.0,71,29.89,3.0,NNE,4.6,-,0.00,Snow,Light Snow,30,2014-02-28 16:53:00
10:22 AM,10.9,5.0,77,29.73,1.8,SSE,10.4,-,0.00,Snow,Light Snow,160,2014-02-28 17:22:00
10:29 AM,10.9,5.0,77,29.74,2.5,South,8.1,-,0.00,Snow,Light Snow,190,2014-02-28 17:29:00
10:40 AM,12.0,5.0,73,29.74,4.0,Variable,3.5,-,0.00,Snow,Light Snow,0,2014-02-28 17:40:00
10:53 AM,12.9,5.0,71,29.89,2.5,Calm,Calm,-,0.00,Snow,Light Snow,0,2014-02-28 17:53:00
11:13 AM,12.0,6.1,77,29.75,1.5,South,4.6,-,0.00,Snow,Light Snow,180,2014-02-28 18:13:00
11:36 AM,12.0,6.1,77,29.74,2.5,SSE,12.7,-,0.00,Snow,Light Snow,160,2014-02-28 18:36:00
11:45 AM,12.0,5.0,73,29.74,3.0,SSE,10.4,-,0.00,Snow,Light Snow,160,2014-02-28 18:45:00
11:53 AM,12.9,5.0,71,29.89,3.0,SSE,12.7,18.4,0.00,Snow,Light Snow,150,2014-02-28 18:53:00
12:08 PM,12.0,5.0,73,29.74,1.8,SSE,11.5,-,0.00,Snow,Light Snow,150,2014-02-28 19:08:00
12:23 PM,12.9,6.1,74,29.74,3.0,SSE,6.9,-,0.00,Snow,Light Snow,160,2014-02-28 19:23:00
12:43 PM,12.9,6.1,74,29.73,2.0,South,6.9,-,0.00,Snow,Light Snow,170,2014-02-28 19:43:00
12:53 PM,12.9,6.1,74,29.91,2.0,SSE,16.1,21.9,0.00,Snow,Light Snow,160,2014-02-28 19:53:00
1:11 PM,12.0,5.0,73,29.72,4.0,South,13.8,19.6,0.00,Snow,Light Snow,170,2014-02-28 20:11:00
1:53 PM,12.9,6.1,74,29.90,3.0,South,15.0,-,0.00,Snow,Light Snow,170,2014-02-28 20:53:00
2:53 PM,12.0,5.0,73,29.90,4.0,SSE,21.9,28.8,0.00,Snow,Blowing Snow,160,2014-02-28 21:53:00
3:53 PM,10.0,3.0,73,29.92,3.0,SSE,21.9,28.8,0.00,Snow,Light Snow,160,2014-02-28 22:53:00
4:09 PM,9.0,3.0,77,29.70,2.0,SSE,20.7,28.8,0.00,Snow,Light Snow,160,2014-02-28 23:09:00
4:29 PM,8.1,1.9,76,29.71,1.5,SSE,20.7,-,0.00,Snow,Light Snow,160,2014-02-28 23:29:00
4:40 PM,8.1,1.9,76,29.71,1.0,SSE,20.7,-,0.00,Snow,Light Snow,160,2014-02-28 23:40:00
4:53 PM,7.0,1.9,80,29.96,0.8,SSE,20.7,24.2,0.00,Snow,Light Snow,160,2014-02-28 23:53:00
5:21 PM,7.0,1.9,80,29.72,0.5,SSE,18.4,23.0,0.00,Snow,Snow,160,2014-03-01 00:21:00
5:30 PM,7.0,1.0,77,29.72,0.5,SSE,15.0,-,0.00,Snow,Snow,160,2014-03-01 00:30:00
5:39 PM,7.0,1.9,80,29.72,0.5,SSE,10.4,-,0.00,Snow,Snow,150,2014-03-01 00:39:00
5:53 PM,7.0,1.0,77,29.96,0.5,South,8.1,21.9,0.01,Snow,Snow,190,2014-03-01 00:53:00
6:03 PM,7.0,1.0,77,29.73,1.5,Variable,6.9,-,0.00,Snow,Light Snow,0,2014-03-01 01:03:00
6:23 PM,6.1,-0.0,76,29.73,0.8,Variable,3.5,-,0.00,Snow,Light Snow,0,2014-03-01 01:23:00
6:34 PM,6.1,-0.0,76,29.73,1.2,North,8.1,-,0.00,Snow,Light Snow,10,2014-03-01 01:34:00
6:53 PM,3.9,-0.0,84,30.01,1.5,North,4.6,-,0.00,Snow,Light Snow,350,2014-03-01 01:53:00
7:12 PM,1.9,-2.0,83,29.75,2.5,North,9.2,-,0.00,Snow,Light Snow,360,2014-03-01 02:12:00
7:21 PM,1.0,-2.9,83,29.76,3.0,North,10.4,-,0.00,Snow,Light Snow,10,2014-03-01 02:21:00
7:34 PM,1.0,-4.0,79,29.77,2.5,North,5.8,-,0.00,Snow,Light Snow,350,2014-03-01 02:34:00
7:41 PM,1.0,-4.0,79,29.77,1.8,NNW,13.8,-,0.00,Snow,Light Snow,330,2014-03-01 02:41:00
7:53 PM,-0.9,-5.1,83,30.06,1.5,NW,12.7,-,0.01,Snow,Light Snow,310,2014-03-01 02:53:00
8:07 PM,-0.9,-6.0,79,29.77,0.8,NW,11.5,-,0.00,Snow,Light Snow,310,2014-03-01 03:07:00
8:16 PM,-0.9,-6.0,79,29.78,1.0,NNW,9.2,-,0.00,Snow,Light Snow,340,2014-03-01 03:16:00
8:20 PM,-0.9,-6.0,79,29.78,0.8,North,8.1,-,0.00,Snow,Light Snow,360,2014-03-01 03:20:00
8:26 PM,-2.0,-7.1,79,29.78,1.0,NW,12.7,-,0.00,Snow,Light Snow,320,2014-03-01 03:26:00
8:32 PM,-2.0,-7.1,79,29.78,2.0,NW,11.5,-,0.00,Snow,Light Snow,310,2014-03-01 03:32:00
8:36 PM,-2.0,-7.1,79,29.78,3.0,NW,10.4,-,0.00,Snow,Light Snow,310,2014-03-01 03:36:00
8:53 PM,-2.0,-7.1,79,30.07,2.5,WNW,8.1,-,0.01,Snow,Light Snow,300,2014-03-01 03:53:00
9:06 PM,-2.0,-8.0,76,29.79,2.0,WNW,9.2,-,0.00,Snow,Light Snow,300,2014-03-01 04:06:00
9:14 PM,-2.0,-8.0,76,29.79,1.5,NW,8.1,-,0.00,Snow,Light Snow,310,2014-03-01 04:14:00
9:29 PM,-2.0,-8.0,76,29.80,2.5,WNW,6.9,-,0.00,Snow,Light Snow,300,2014-03-01 04:29:00
9:40 PM,-2.0,-8.0,76,29.81,3.0,WNW,5.8,-,0.00,Snow,Light Snow,290,2014-03-01 04:40:00
9:53 PM,-2.0,-8.0,76,30.09,3.0,NW,4.6,-,0.00,Snow,Light Snow,310,2014-03-01 04:53:00
10:03 PM,-2.0,-8.0,76,29.81,2.5,WNW,4.6,-,0.00,Snow,Light Snow,300,2014-03-01 05:03:00
10:28 PM,-2.0,-9.0,72,29.82,3.0,NNW,4.6,-,0.00,Snow,Light Snow,340,2014-03-01 05:28:00
10:53 PM,-2.0,-9.9,69,30.11,5.0,NW,5.8,-,0.00,Snow,Light Snow,320,2014-03-01 05:53:00
11:53 PM,-4.0,-9.9,76,30.12,5.0,Variable,5.8,-,0.00,,Haze,0,2014-03-01 06:53:00